TimeEDT,TemperatureF,Dew PointF,Humidity,Sea Level PressureIn,VisibilityMPH,Wind Direction,Wind SpeedMPH,Gust SpeedMPH,PrecipitationIn,Events,Conditions,WindDirDegrees,DateUTC
12:55 AM,34.3,19.6,55,29.76,10.0,West,4.6,-,N/A,,Clear,270,2013-03-27 04:55:00
1:55 AM,33.6,21.9,62,29.76,10.0,West,5.8,-,N/A,,Clear,270,2013-03-27 05:55:00
2:55 AM,32.7,21.6,64,29.75,10.0,West,5.8,-,N/A,,Clear,260,2013-03-27 06:55:00
3:55 AM,32.5,21.4,64,29.75,10.0,WSW,4.6,-,N/A,,Clear,240,2013-03-27 07:55:00
4:55 AM,32.0,21.2,64,29.75,10.0,West,5.8,-,N/A,,Clear,260,2013-03-27 08:55:00
5:55 AM,32.5,21.4,64,29.75,10.0,West,5.8,-,N/A,,Scattered Clouds,260,2013-03-27 09:55:00
6:55 AM,31.8,21.7,66,29.76,10.0,WSW,8.1,-,N/A,,Partly Cloudy,250,2013-03-27 10:55:00
7:55 AM,36.7,22.6,57,29.77,10.0,West,5.8,-,N/A,,Clear,270,2013-03-27 11:55:00
8:55 AM,42.3,22.1,45,29.77,10.0,West,9.2,-,N/A,,Clear,280,2013-03-27 12:55:00
9:55 AM,45.9,21.7,38,29.77,10.0,West,11.5,-,N/A,,Clear,280,2013-03-27 13:55:00
10:55 AM,49.3,22.5,35,29.76,10.0,WNW,11.5,-,N/A,,Clear,300,2013-03-27 14:55:00
11:55 AM,51.4,22.5,32,29.74,10.0,NW,13.8,18.4,N/A,,Partly Cloudy,320,2013-03-27 15:55:00
12:55 PM,51.6,21.7,31,29.73,10.0,NW,11.5,-,N/A,,Partly Cloudy,310,2013-03-27 16:55:00
1:55 PM,52.3,20.8,29,29.72,10.0,WNW,12.7,18.4,N/A,,Scattered Clouds,290,2013-03-27 17:55:00
2:55 PM,52.9,21.0,29,29.72,10.0,NNW,15.0,-,N/A,,Mostly Cloudy,330,2013-03-27 18:55:00
3:55 PM,52.5,21.9,30,29.73,10.0,NW,17.3,23.0,N/A,,Mostly Cloudy,320,2013-03-27 19:55:00
4:55 PM,49.8,23.2,35,29.75,10.0,NNW,15.0,21.9,N/A,,Overcast,340,2013-03-27 20:55:00
5:55 PM,47.5,24.4,41,29.78,10.0,WNW,12.7,21.9,N/A,,Overcast,300,2013-03-27 21:55:00
6:55 PM,44.4,27.5,52,29.81,10.0,NW,16.1,-,N/A,,Overcast,310,2013-03-27 22:55:00
7:55 PM,42.3,30.6,63,29.83,8.0,NW,12.7,-,0.00,Rain,Light Rain Showers,320,2013-03-27 23:55:00
8:38 PM,41.0,32.0,70,29.85,7.0,NW,16.1,-,N/A,Rain,Light Rain Showers,320,2013-03-28 00:38:00
8:55 PM,40.5,33.1,75,29.86,7.0,NW,12.7,-,0.00,Rain,Light Rain,320,2013-03-28 00:55:00
9:40 PM,39.2,33.8,81,29.86,7.0,NW,9.2,-,N/A,Rain,Light Rain,310,2013-03-28 01:40:00
9:55 PM,39.4,33.3,79,29.86,7.0,NW,9.2,-,0.00,Rain,Light Rain,310,2013-03-28 01:55:00
10:55 PM,38.8,34.0,83,29.87,7.0,NNW,12.7,-,0.00,Rain,Light Rain,330,2013-03-28 02:55:00
11:55 PM,37.9,34.7,88,29.87,7.0,NW,9.2,-,0.00,Rain,Light Rain,320,2013-03-28 03:55:00